STARLINK-34089 (64039 NORAD) Tracking and Keplerian Element Data

This shows tracking and keplerian element data for the satellite.

Feedback or suggestion? Click here.




ElementValue
Catalog64039
NameSTARLINK-34089
Epoch Orbit3404
Epoch Day354.22178998
Epoch Year2025
RAAN315.0196
Inclination70.002
Eccentricity0.0002736
Argument of Perigee274.1297
Mean Anonmoly85.9549
Mean Motion14.98337076
Decay Rate3.346E-05
L11 64039U 25102T 25354.22178998 .00003346 00000+0 28801-3 0 9994
L22 64039 70.0020 315.0196 0002736 274.1297 85.9549 14.98337076 34047



Live tracking and technical data element details for STARLINK-34089 (NORAD 64039). STARLINK-34089 can be tracked NOW for your location showing map with azimuth and elevation plus other details from your city location.







IsCatalogInMostPopularTable: catalog: 64039, numindb: 2
Update: records affected: 1



GetName: 64039 STARLINK-34089

Hit Count: updated at: Mon, 09 Feb 2026 08:47:10 GMT